TimeHST,TemperatureF,Dew PointF,Humidity,Sea Level PressureIn,VisibilityMPH,Wind Direction,Wind SpeedMPH,Gust SpeedMPH,PrecipitationIn,Events,Conditions,WindDirDegrees,DateUTC
12:22 AM,68.0,62.1,81,30.16,10.0,SW,5.8,-,N/A,Thunderstorm,Thunderstorm,220,2013-01-05 10:22:00
12:53 AM,66.9,63.0,87,30.16,10.0,Calm,Calm,-,0.01,Thunderstorm,Thunderstorm,0,2013-01-05 10:53:00
1:01 AM,66.9,63.0,87,30.16,10.0,West,4.6,-,N/A,,Mostly Cloudy,260,2013-01-05 11:01:00
1:53 AM,66.0,63.0,90,30.14,10.0,West,5.8,-,0.01,,Mostly Cloudy,270,2013-01-05 11:53:00
2:53 AM,66.0,62.1,87,30.14,10.0,West,5.8,-,0.00,,Mostly Cloudy,260,2013-01-05 12:53:00
3:53 AM,66.9,61.0,81,30.15,10.0,NW,8.1,-,N/A,,Mostly Cloudy,320,2013-01-05 13:53:00
5:12 AM,66.9,62.1,84,30.16,10.0,Calm,Calm,-,0.00,,Overcast,0,2013-01-05 15:12:00
5:39 AM,66.0,62.1,87,30.15,10.0,WSW,9.2,-,0.00,,Mostly Cloudy,250,2013-01-05 15:39:00
5:53 AM,66.0,62.1,87,30.16,6.0,West,4.6,-,0.00,Rain,Light Rain,280,2013-01-05 15:53:00
5:56 AM,66.0,62.1,87,30.16,1.8,WSW,6.9,-,0.00,Rain,Heavy Rain,250,2013-01-05 15:56:00
6:05 AM,66.9,63.0,87,30.16,3.0,West,5.8,-,0.16,Rain,Light Rain,280,2013-01-05 16:05:00
6:19 AM,66.9,63.0,87,30.15,10.0,WNW,6.9,-,0.16,Rain,Light Rain,290,2013-01-05 16:19:00
6:37 AM,66.9,62.1,84,30.17,2.5,East,10.4,-,0.20,Rain,Heavy Rain,90,2013-01-05 16:37:00
6:49 AM,66.2,62.6,88,30.18,8.0,Calm,Calm,-,0.34,Rain,Light Rain,0,2013-01-05 16:49:00
6:53 AM,66.9,62.1,84,30.18,10.0,Calm,Calm,-,0.35,,Overcast,0,2013-01-05 16:53:00
7:53 AM,66.9,63.0,87,30.19,10.0,West,10.4,-,0.00,Rain,Light Rain,270,2013-01-05 17:53:00
8:53 AM,71.1,64.9,81,30.21,9.0,Calm,Calm,-,0.00,Rain,Light Rain,0,2013-01-05 18:53:00
8:57 AM,70.0,64.9,84,30.22,2.5,SSE,5.8,-,0.00,Rain,Light Rain,150,2013-01-05 18:57:00
9:04 AM,70.0,66.0,87,30.21,2.0,Variable,3.5,-,0.13,Rain,Heavy Rain,0,2013-01-05 19:04:00
9:53 AM,73.0,64.9,76,30.20,10.0,West,6.9,-,0.26,,Mostly Cloudy,270,2013-01-05 19:53:00
10:53 AM,73.9,64.0,71,30.17,10.0,NW,4.6,-,0.00,,Mostly Cloudy,310,2013-01-05 20:53:00
11:53 AM,71.1,64.9,81,30.16,10.0,WSW,9.2,-,0.00,,Mostly Cloudy,240,2013-01-05 21:53:00
12:32 PM,71.1,64.0,78,30.14,7.0,NNW,4.6,-,0.00,Rain,Light Rain,340,2013-01-05 22:32:00
12:53 PM,73.0,66.0,79,30.13,8.0,NNW,3.5,-,0.01,Rain,Light Rain,340,2013-01-05 22:53:00
1:37 PM,73.0,64.9,76,30.11,1.5,NNW,10.4,-,0.00,Rain,Heavy Rain,330,2013-01-05 23:37:00
1:47 PM,71.6,66.2,83,30.10,10.0,NNW,4.6,-,0.13,Rain,Light Rain,340,2013-01-05 23:47:00
1:53 PM,72.0,66.9,84,30.10,10.0,North,4.6,-,0.13,,Mostly Cloudy,10,2013-01-05 23:53:00
2:08 PM,75.0,66.9,76,30.10,10.0,Variable,5.8,-,N/A,,Mostly Cloudy,0,2013-01-06 00:08:00
2:49 PM,71.6,64.4,78,30.10,2.0,NE,6.9,17.3,0.01,Rain,Rain,40,2013-01-06 00:49:00
2:53 PM,70.0,64.9,84,30.10,1.8,North,4.6,17.3,0.08,Rain,Heavy Rain,10,2013-01-06 00:53:00
2:56 PM,70.0,64.9,84,30.10,2.0,North,3.5,-,0.05,Rain,Light Rain,350,2013-01-06 00:56:00
3:10 PM,70.0,66.0,87,30.10,5.0,NNE,5.8,-,0.20,Rain,Light Rain,30,2013-01-06 01:10:00
3:17 PM,70.0,66.0,87,30.10,10.0,North,5.8,-,0.20,,Mostly Cloudy,360,2013-01-06 01:17:00
3:53 PM,71.1,64.9,81,30.11,10.0,Calm,Calm,-,0.21,,Mostly Cloudy,0,2013-01-06 01:53:00
4:09 PM,71.1,64.9,81,30.11,10.0,West,4.6,-,N/A,,Mostly Cloudy,270,2013-01-06 02:09:00
4:53 PM,73.9,64.9,73,30.12,10.0,NE,5.8,-,0.00,,Overcast,50,2013-01-06 02:53:00
5:53 PM,71.1,64.0,78,30.14,10.0,ENE,8.1,-,N/A,,Mostly Cloudy,70,2013-01-06 03:53:00
6:53 PM,69.1,61.0,75,30.17,10.0,Calm,Calm,-,N/A,,Partly Cloudy,0,2013-01-06 04:53:00
7:53 PM,66.0,61.0,84,30.18,10.0,WSW,4.6,-,N/A,,Partly Cloudy,240,2013-01-06 05:53:00
8:53 PM,66.9,63.0,87,30.19,10.0,West,4.6,-,0.00,,Mostly Cloudy,260,2013-01-06 06:53:00
9:53 PM,66.9,62.1,84,30.20,10.0,WSW,8.1,-,N/A,,Scattered Clouds,250,2013-01-06 07:53:00
10:53 PM,66.9,62.1,84,30.19,10.0,SW,5.8,-,0.03,Rain,Light Rain,220,2013-01-06 08:53:00
11:53 PM,64.9,61.0,87,30.19,6.0,SSW,4.6,-,0.13,Rain,Light Rain,210,2013-01-06 09:53:00